{"data":{"norad_id":64843,"intl_designator":"2025-152B","name":"STARLINK-34725","alt_names":[],"object_type":"PAYLOAD","status":"ACTIVE","operator":null,"country":"US","launch_date":"2025-07-19","launch_site_code":"AFWTR","launch_vehicle":null,"mission":null,"orbit_class":"UNKNOWN","rcs_meters":null,"size_class":null,"mass_kg":null,"dimensions":null,"purposes":["comms"],"wikipedia_slug":null,"has_3d_model":false,"image_url":null,"decayed_at":null,"tle_current":{"epoch":"2026-05-25T02:28:26.237280Z","epoch_age_seconds":62276,"freshness":"FRESH","line1":"1 64843U 25152B   26145.10308145  .00003509  00000+0  24707-3 0  9999","line2":"2 64843  97.4520   0.4259 0002203  82.8156 277.3322 15.05658805 46910","mean_motion":15.05658805,"eccentricity":0.0002203,"inclination_deg":97.452,"raan_deg":0.4259,"arg_perigee_deg":82.8156,"mean_anomaly_deg":277.3322,"bstar":0.00024707,"rev_number":4691,"period_min":95.639197620207,"perigee_km":547.95799076777,"apogee_km":551.01030064457,"semimajor_km":6927.6211457062,"source":"CELESTRAK","updated_at":"2026-05-25T13:38:20.610821Z"}}}